Regional Weather Roundup
Issued by NWS

Home | Current Version | Previous Version | Graphics & Text | Print | Product List | Glossary Off
Versions: 1 2 3 4 5 6 7 8 9 10 11 12 13 14 15 16 17 18 19 20 21 22 23 24 25 26 27 28 29 30 31 32 33 34 35 36 37 38 39 40 41 42 43 44 45 46 47 48 49 50

000
ASUS43 KDMX 210206
RWRIA

WEATHER ROUNDUP FOR IOWA
NATIONAL WEATHER SERVICE DES MOINES IA
900 PM CDT FRI APR 20 2018

NOTE: "FAIR" INDICATES FEW OR NO CLOUDS BELOW 12,000 FEET WITH NO
SIGNIFICANT WEATHER AND/OR OBSTRUCTIONS TO VISIBILITY.

* - THESE STATIONS ARE NOT NWS STATIONS...THUS NOT UNDER NWS
QUALITY CONTROL.  THEY ALSO DO NOT REPORT WEATHER SUCH
AS PRECIPITATION OR FOG.

IAZ001>003-012>014-020>022-031>034-043>046-210300-
   NORTHWEST IOWA

CITY           SKY/WX    TMP DP  RH WIND       PRES   REMARKS
CARROLL *      CLOUDY    48  36  61 NE7       30.37R
CHEROKEE *     CLOUDY    39  34  81 NE6       30.40R WCI  35
DENISON *      CLOUDY    50  32  50 E9        30.37R
LE MARS *      CLOUDY    43  36  75 NE12G18   30.38R
ORANGE CITY *  CLOUDY    39  37  93 E7        30.39R WCI  34
SHELDON *      CLOUDY    39  36  87 E9        30.39R WCI  33
SIOUX CITY     CLOUDY    47  35  63 E14       30.35R
SPENCER        CLOUDY    37  30  75 E8        30.40R WCI  31
STORM LAKE *   CLOUDY    39  34  81 NE12      30.39R WCI  32
$$

IAZ055>058-069>071-079>083-090>094-210300-
   SOUTHWEST IOWA

CITY           SKY/WX    TMP DP  RH WIND       PRES   REMARKS
ATLANTIC *     CLOUDY    54  28  37 E7        30.34S
AUDUBON *      CLOUDY    48  32  53 CALM      30.37R
CLARINDA *     CLOUDY    55  28  35 E6        30.34S
COUNCIL BLFS * CLOUDY    55  30  38 E12       30.30F
CRESTON *      CLOUDY    52  28  40 E10       30.35S
HARLAN  *      CLOUDY    52  32  46 E8        30.37S
LAMONI         CLOUDY    52  27  38 E6        30.33S
RED OAK *      CLOUDY    54  30  40 E8        30.32S
SHENANDOAH *   CLOUDY    55  27  33 E9        30.32S
$$

IAZ047>049-059>061-072>074-084-210300-
   CENTRAL IOWA

CITY           SKY/WX    TMP DP  RH WIND       PRES   REMARKS
AMES           CLOUDY    52  29  41 NE3       30.38R
ANKENY *       CLOUDY    52  30  43 E3        30.39R
BOONE *        CLOUDY    50  34  53 E6        30.37R
CHARITON *     CLOUDY    52  27  37 E6        30.36R
DES MOINES     CLOUDY    56  25  30 E6        30.37R
GRINNELL*      CLOUDY    52  24  34 E5        30.39S
KNOXVILLE *    CLOUDY    54  23  30 E6        30.36R
MARSHALLTOWN   CLOUDY    48  34  58 NE7       30.37S
NEWTON *       CLOUDY    52  27  37 E7        30.38R
PELLA *        CLOUDY    53  21  28 CALM      30.39R
PERRY *        FAIR      49  25  39 E7        30.37R
$$

IAZ004>006-015-016-023>025-035-036-210300-
   NORTH CENTRAL IOWA

CITY           SKY/WX    TMP DP  RH WIND       PRES   REMARKS
ALGONA *       CLOUDY    37  30  75 E7        30.41R WCI  32
CLARION *      MOCLDY    41  34  75 E12       30.41R
ESTHERVILLE    CLOUDY    34  29  82 NE7       30.40S WCI  28
FORT DODGE *   MOCLDY    43  36  76 NE9       30.40R
MASON CITY     CLOUDY    35  30  82 NE6       30.42F WCI  30
FOREST CITY *  FAIR      39  30  70 CALM      30.42R
WEBSTER CITY * CLOUDY    46  36  66 NE10      30.38R
IOWA FALLS *   FAIR      46  37  70 NE8       30.40S
$$

IAZ007>011-017>019-026>030-037>042-050>054-066-210300-
   NORTHEAST IOWA

CITY           SKY/WX    TMP DP  RH WIND       PRES   REMARKS
CEDAR RAPIDS   FAIR      54  19  25 E5        30.38S
CHARLES CITY * CLOUDY    39  28  65 NE7       30.42S WCI  34
CLINTON *      FAIR      48  28  46 E7        30.42R
DECORAH *      FAIR      43  25  49 N3        30.42R
DUBUQUE        FAIR      49  27  42 SE5       30.41R
MONTICELLO *   FAIR      46  30  53 CALM      30.40S
OELWEIN *      MOCLDY    45  37  76 NE9       30.41S
WATERLOO       FAIR      45  35  68 NE9       30.40S
$$

IAZ064-065-067-068-078-210300-
   EAST CENTRAL IOWA

CITY           SKY/WX    TMP DP  RH WIND       PRES   REMARKS
DAVENPORT      FAIR      51  22  31 E6        30.42R
IOWA CITY      FAIR      50  21  32 CALM      30.41R
MT. PLEASANT * CLOUDY    48  21  34 NE7       30.38S
MUSCATINE *    FAIR      52  25  35 CALM      30.40S
QUAD CITIES    FAIR      49  28  44 CALM      30.39R
$$

IAZ062-063-075>077-085>089-095>099-210300-
   SOUTHEAST IOWA

CITY           SKY/WX    TMP DP  RH WIND       PRES   REMARKS
BURLINGTON     MOCLDY    54  20  26 E5        30.38R
FAIRFIELD *    MOCLDY    50  23  34 NE7       30.37S
FORT MADISON * CLOUDY    54  25  32 E3        30.38S
KEOKUK *       CLOUDY    54  23  30 E6        30.36S
OSKALOOSA *    FAIR      50  23  34 E6        30.39R
CENTERVILLE *    N/A     50  19  29 CALM      30.38R
OTTUMWA        CLOUDY    51  23  33 E6        30.37R
WASHINGTON *   CLOUDY    48  25  40 E7        30.40R
$$

ABBREVIATIONS USED IN REMARKS
   TC - TEMPERATURES IN CELSIUS
  WCI - WIND CHILL INDEX
   HX - HEAT INDEX
  VSB - VISIBILITY
$$




USA.gov is the U.S. government's official web portal to all federal, state and local government web resources and services.